TimePDT,TemperatureF,Dew PointF,Humidity,Sea Level PressureIn,VisibilityMPH,Wind Direction,Wind SpeedMPH,Gust SpeedMPH,PrecipitationIn,Events,Conditions,WindDirDegrees,DateUTC
12:53 AM,54.0,52.0,93,29.83,5.0,South,9.2,-,0.03,Rain,Light Rain,170,2012-10-19 07:53:00
1:53 AM,55.9,54.0,93,29.82,3.0,SSE,9.2,-,0.00,Rain,Light Rain,150,2012-10-19 08:53:00
2:53 AM,57.0,55.0,93,29.81,4.0,SSE,10.4,-,0.01,Rain,Light Rain,160,2012-10-19 09:53:00
3:53 AM,57.9,55.0,90,29.80,10.0,South,13.8,21.9,0.02,Rain,Light Rain,170,2012-10-19 10:53:00
4:53 AM,59.0,55.0,87,29.78,10.0,SSE,13.8,23.0,0.00,,Overcast,160,2012-10-19 11:53:00
5:40 AM,59.0,55.4,88,29.78,10.0,SSE,13.8,21.9,N/A,,Overcast,160,2012-10-19 12:40:00
5:53 AM,59.0,55.0,87,29.78,10.0,SSE,11.5,20.7,N/A,,Overcast,160,2012-10-19 12:53:00
6:53 AM,59.0,54.0,83,29.79,6.0,South,15.0,20.7,0.01,Rain,Light Rain,170,2012-10-19 13:53:00
7:39 AM,57.2,55.4,94,29.78,4.0,South,13.8,-,0.00,Rain,Light Rain,170,2012-10-19 14:39:00
7:53 AM,57.9,55.0,90,29.79,4.0,South,15.0,-,0.00,Rain,Light Rain,170,2012-10-19 14:53:00
8:25 AM,57.2,55.4,94,29.78,4.0,South,12.7,20.7,0.01,Rain,Light Rain,170,2012-10-19 15:25:00
8:53 AM,57.9,55.0,90,29.78,7.0,SSE,15.0,19.6,0.01,,Mostly Cloudy,160,2012-10-19 15:53:00
9:53 AM,57.9,55.0,90,29.80,10.0,South,13.8,19.6,N/A,,Mostly Cloudy,180,2012-10-19 16:53:00
10:00 AM,57.2,55.4,94,29.80,10.0,South,12.7,20.7,N/A,,Overcast,180,2012-10-19 17:00:00
10:53 AM,57.0,53.1,87,29.81,10.0,South,16.1,24.2,N/A,,Overcast,190,2012-10-19 17:53:00
11:53 AM,57.0,51.1,81,29.81,10.0,SSW,15.0,24.2,N/A,,Mostly Cloudy,200,2012-10-19 18:53:00
12:53 PM,57.9,46.9,67,29.80,10.0,SSW,8.1,23.0,N/A,,Overcast,210,2012-10-19 19:53:00
1:53 PM,57.0,48.0,72,29.79,10.0,SSW,10.4,18.4,N/A,,Mostly Cloudy,200,2012-10-19 20:53:00
2:53 PM,57.9,48.0,70,29.78,10.0,South,11.5,18.4,N/A,,Mostly Cloudy,190,2012-10-19 21:53:00
3:53 PM,57.0,46.9,69,29.78,10.0,South,4.6,-,N/A,,Overcast,180,2012-10-19 22:53:00
4:53 PM,53.1,46.0,77,29.78,10.0,NE,6.9,-,N/A,,Overcast,50,2012-10-19 23:53:00
5:53 PM,51.1,46.0,83,29.77,10.0,NE,6.9,-,N/A,,Overcast,40,2012-10-20 00:53:00
6:53 PM,51.1,45.0,80,29.77,10.0,NE,11.5,-,N/A,,Overcast,50,2012-10-20 01:53:00
7:53 PM,51.1,45.0,80,29.76,10.0,ENE,5.8,-,N/A,,Overcast,60,2012-10-20 02:53:00
8:53 PM,51.1,45.0,80,29.77,10.0,WSW,8.1,-,0.01,Rain,Light Rain,240,2012-10-20 03:53:00
9:53 PM,50.0,45.0,83,29.78,10.0,NNE,4.6,-,0.01,Rain,Light Rain,20,2012-10-20 04:53:00
10:53 PM,48.9,43.0,80,29.79,10.0,Variable,3.5,-,0.00,,Overcast,0,2012-10-20 05:53:00
11:53 PM,48.9,43.0,80,29.80,10.0,Calm,Calm,-,N/A,,Overcast,0,2012-10-20 06:53:00